DW8522 Weather Reports


time (UTC)temp
F
wind
direction
speed
knots
gust
knots
rain 1hr
in
rain 24hr
in
rain mn
in
humidity
%
barometer
mb
20260503214532 58 143 0.0 1.7 0.00 0.00 0.00 78 1035.2
20260503213029 57 136 1.7 4.3 0.00 0.00 0.00 78 1035.2
20260503211525 56 150 0.0 3.5 0.00 0.00 0.00 83 1035.3
20260503210023 55 152 0.9 3.5 0.00 0.00 0.00 82 1035.4
20260503204521 54 144 1.7 4.3 0.00 0.00 0.00 84 1035.3
20260503203041 54 142 0.0 2.6 0.00 0.00 0.00 85 1035.1
20260503201517 54 148 0.0 1.7 0.00 0.00 0.00 86 1035.1
20260503200017 53 152 0.0 1.7 0.00 0.00 0.00 86 1035.0
20260503194533 53 150 0.0 1.7 0.00 0.00 0.00 86 1034.9
20260503193017 53 146 0.9 3.5 0.00 0.00 0.00 86 1034.8
20260503191515 53 152 0.0 2.6 0.00 0.00 0.00 86 1034.6
20260503190019 53 141 0.0 3.5 0.00 0.00 0.00 86 1034.4
20260503184522 53 143 1.7 3.5 0.00 0.00 0.00 86 1034.2
20260503183016 54 157 0.9 3.5 0.00 0.00 0.00 86 1034.1
20260503181512 54 152 0.0 1.7 0.00 0.00 0.00 86 1034.0
20260503180012 54 146 0.9 3.5 0.00 0.00 0.00 86 1033.9
20260503174511 54 144 0.9 2.6 0.00 0.00 0.00 86 1033.9
20260503173011 54 135 0.0 1.7 0.00 0.00 0.00 86 1033.8
20260503171508 54 128 0.9 5.2 0.00 0.00 0.00 87 1033.9
20260503081533 53 152 0.0 2.6 0.00 0.00 0.00 90 1033.6
20260503071519 55 115 0.0 0.0 0.00 0.00 0.00 86 1033.4
20260503054524 59 113 0.0 0.9 0.00 0.00 0.00 76 1032.9
20260503053020 61 113 0.0 0.9 0.00 0.00 0.00 74 1032.8
20260503051513 62 98 0.0 1.7 0.00 0.00 0.00 72 1032.7
20260503050011 64 72 0.9 2.6 0.00 0.00 0.00 68 1032.6
20260503044510 65 91 0.0 3.5 0.00 0.00 0.00 67 1032.6
20260503043009 66 105 0.0 2.6 0.00 0.00 0.00 65 1032.7
20260503041506 66 128 0.0 3.5 0.00 0.00 0.00 65 1032.7
20260503040003 67 113 0.0 2.6 0.00 0.00 0.00 65 1032.6
20260503034615 67 142 0.9 3.5 0.00 0.00 0.00 64 1032.6
20260503033106 67 146 0.9 4.3 0.00 0.00 0.00 64 1032.6
20260503031557 68 72 0.9 4.3 0.00 0.00 0.00 64 1032.7
20260503030055 68 84 0.0 4.3 0.00 0.00 0.00 63 1032.7
20260503024555 68 118 0.9 4.3 0.00 0.00 0.00 62 1032.8
20260503023056 68 96 0.0 3.5 0.00 0.00 0.00 63 1032.9
20260503021549 68 45 0.9 4.3 0.00 0.00 0.00 63 1033.0
20260503020047 68 99 1.7 4.3 0.00 0.00 0.00 61 1033.1
20260503014544 68 70 1.7 5.2 0.00 0.00 0.00 60 1033.2
20260503013041 67 300 0.9 3.5 0.00 0.00 0.00 62 1033.4
20260503011537 67 96 0.9 3.5 0.00 0.00 0.00 61 1033.5
20260503010037 67 121 0.9 2.6 0.00 0.00 0.00 62 1033.7
20260503004531 66 127 0.9 3.5 0.00 0.00 0.00 63 1033.9
20260503003030 66 191 0.9 4.3 0.00 0.00 0.00 61 1034.1
20260503001527 66 81 0.9 2.6 0.00 0.00 0.00 62 1034.3
20260503000025 66 85 0.9 3.5 0.00 0.00 0.00 62 1034.6
20260502234534 66 119 0.0 2.6 0.00 0.00 0.00 64 1034.8
20260502233024 65 162 0.9 3.5 0.00 0.00 0.00 63 1034.9
20260502231524 65 153 0.0 1.7 0.00 0.00 0.00 64 1035.0
20260502230019 65 139 0.0 3.5 0.00 0.00 0.00 64 1035.1
20260502224517 64 170 0.0 1.7 0.00 0.00 0.00 66 1035.1
20260502223014 63 143 0.0 1.7 0.00 0.00 0.00 68 1035.2
20260502221510 62 143 0.0 1.7 0.00 0.00 0.00 71 1035.2
20260502220011 61 155 0.0 1.7 0.00 0.00 0.00 74 1035.2